QPF
0.00 0.00 0.00 0.00 0.00 0.00 0.00 0.00 0.00 0.00 0.00 0.00 0.00 0.01 0.02 0.02 0.01 0.02 0.02 0.02 0.03 0.03 0.05 0.07 0.11 0.17 0.23 0.36 0.43 0.49 0.52 0.54 0.56 0.52 0.43 0.39 0.40 0.39 0.42 0.46 0.43 0.36 0.31 0.26
0.00 0.00 0.00 0.00 0.00 0.00 0.00 0.00 0.00 0.00 0.00 0.01 0.01 0.02 0.04 0.03 0.03 0.03 0.03 0.03 0.04 0.05 0.07 0.08 0.12 0.17 0.27 0.44 0.50 0.59 0.68 0.70 0.66 0.63 0.58 0.54 0.49 0.43 0.39 0.44 0.44 0.36 0.28 0.24
0.00 0.00 0.00 0.00 0.00 0.00 0.00 0.00 0.00 0.00 0.01 0.02 0.03 0.04 0.05 0.06 0.05 0.05 0.04 0.05 0.04 0.06 0.09 0.12 0.14 0.16 0.27 0.44 0.55 0.63 0.78 0.78 0.72 0.74 0.71 0.64 0.56 0.44 0.33 0.29 0.30 0.29 0.25 0.23
0.00 0.00 0.00 0.00 0.00 0.00 0.00 0.00 0.00 0.00 0.01 0.02 0.03 0.03 0.05 0.06 0.06 0.05 0.05 0.05 0.05 0.05 0.06 0.11 0.15 0.17 0.26 0.39 0.47 0.51 0.67 0.75 0.71 0.75 0.78 0.67 0.53 0.43 0.34 0.28 0.26 0.24 0.23 0.20
0.00 0.00 0.00 0.00 0.00 0.00 0.00 0.00 0.00 0.00 0.00 0.01 0.02 0.02 0.04 0.05 0.04 0.04 0.04 0.04 0.05 0.05 0.05 0.08 0.11 0.15 0.19 0.26 0.33 0.38 0.45 0.53 0.61 0.65 0.66 0.57 0.46 0.36 0.26 0.22 0.20 0.15 0.13 0.13
0.00 0.00 0.00 0.00 0.00 0.00 0.00 0.00 0.00 0.00 0.00 0.01 0.01 0.02 0.03 0.06 0.07 0.05 0.04 0.04 0.04 0.04 0.04 0.06 0.07 0.09 0.10 0.13 0.19 0.23 0.29 0.34 0.41 0.47 0.48 0.45 0.41 0.33 0.23 0.17 0.14 0.11 0.10 0.10
0.00 0.00 0.00 0.00 0.00 0.00 0.00 0.00 0.00 0.00 0.00 0.01 0.01 0.01 0.02 0.03 0.06 0.06 0.05 0.05 0.05 0.04 0.04 0.06 0.07 0.10 0.09 0.10 0.12 0.16 0.24 0.31 0.35 0.38 0.41 0.41 0.38 0.29 0.19 0.11 0.08 0.06 0.06 0.06
0.00 0.00 0.00 0.00 0.00 0.00 0.00 0.00 0.00 0.00 0.01 0.01 0.02 0.02 0.02 0.03 0.04 0.06 0.06 0.06 0.07 0.06 0.04 0.06 0.07 0.09 0.10 0.10 0.13 0.16 0.21 0.29 0.33 0.35 0.35 0.35 0.28 0.20 0.13 0.08 0.05 0.05 0.04 0.04
0.00 0.00 0.00 0.00 0.00 0.00 0.00 0.00 0.00 0.00 0.01 0.02 0.03 0.04 0.04 0.04 0.05 0.08 0.09 0.08 0.08 0.06 0.06 0.07 0.06 0.07 0.10 0.10 0.11 0.14 0.15 0.16 0.18 0.22 0.23 0.25 0.22 0.15 0.11 0.08 0.07 0.06 0.04 0.03
0.00 0.00 0.00 0.00 0.00 0.00 0.00 0.00 0.00 0.00 0.00 0.01 0.02 0.03 0.04 0.06 0.08 0.11 0.11 0.11 0.11 0.09 0.07 0.06 0.05 0.06 0.08 0.09 0.08 0.10 0.13 0.15 0.14 0.13 0.13 0.13 0.13 0.12 0.11 0.09 0.07 0.04 0.03 0.02
0.00 0.00 0.00 0.00 0.00 0.00 0.00 0.00 0.01 0.00 0.00 0.01 0.01 0.01 0.02 0.05 0.10 0.11 0.11 0.10 0.10 0.10 0.08 0.06 0.07 0.06 0.05 0.05 0.06 0.07 0.10 0.13 0.14 0.14 0.13 0.11 0.09 0.10 0.11 0.08 0.05 0.03 0.02 0.01
0.00 0.00 0.00 0.00 0.00 0.01 0.01 0.01 0.01 0.00 0.01 0.01 0.01 0.04 0.04 0.04 0.08 0.11 0.13 0.15 0.13 0.09 0.07 0.05 0.06 0.05 0.03 0.03 0.05 0.06 0.06 0.07 0.07 0.09 0.12 0.11 0.08 0.07 0.05 0.03 0.02 0.01 0.01 0.01
0.00 0.00 0.00 0.00 0.00 0.01 0.01 0.01 0.01 0.01 0.01 0.01 0.01 0.03 0.06 0.04 0.04 0.07 0.12 0.14 0.14 0.13 0.10 0.08 0.06 0.04 0.03 0.03 0.04 0.04 0.03 0.03 0.04 0.04 0.05 0.06 0.04 0.03 0.02 0.01 0.01 0.01 0.00 0.00
0.00 0.00 0.00 0.00 0.01 0.01 0.02 0.01 0.01 0.01 0.01 0.01 0.01 0.01 0.02 0.03 0.06 0.07 0.08 0.12 0.13 0.14 0.15 0.14 0.11 0.07 0.05 0.04 0.04 0.04 0.02 0.02 0.04 0.04 0.03 0.03 0.02 0.01 0.01 0.01 0.00 0.00 0.00 0.00
0.01 0.00 0.00 0.01 0.01 0.01 0.01 0.02 0.01 0.02 0.02 0.02 0.02 0.01 0.01 0.02 0.03 0.07 0.09 0.09 0.10 0.10 0.12 0.12 0.09 0.07 0.05 0.04 0.04 0.03 0.03 0.03 0.04 0.03 0.03 0.02 0.01 0.01 0.00 0.00 0.00 0.00 0.00 0.00
0.01 0.01 0.00 0.01 0.01 0.01 0.01 0.01 0.01 0.02 0.02 0.02 0.02 0.01 0.01 0.01 0.02 0.04 0.06 0.07 0.08 0.07 0.07 0.09 0.08 0.07 0.08 0.07 0.05 0.04 0.04 0.05 0.03 0.03 0.02 0.01 0.00 0.00 0.00 0.00 0.00 0.00 0.00 0.00
0.00 0.01 0.01 0.02 0.02 0.02 0.02 0.02 0.02 0.02 0.02 0.02 0.01 0.01 0.01 0.01 0.02 0.03 0.04 0.06 0.08 0.09 0.08 0.06 0.07 0.06 0.05 0.06 0.05 0.03 0.03 0.02 0.01 0.01 0.01 0.00 0.00 0.00 0.00 0.00 0.00 0.00 0.00 0.00
0.01 0.00 0.01 0.02 0.02 0.02 0.02 0.02 0.01 0.01 0.01 0.01 0.01 0.01 0.01 0.02 0.02 0.03 0.05 0.06 0.07 0.09 0.09 0.08 0.07 0.07 0.06 0.04 0.03 0.03 0.03 0.03 0.02 0.01 0.01 0.00 0.00 0.00 0.00 0.00 0.00 0.00 0.00 0.00
0.01 0.01 0.01 0.01 0.01 0.02 0.04 0.02 0.01 0.01 0.00 0.01 0.01 0.01 0.01 0.02 0.03 0.03 0.04 0.06 0.07 0.07 0.08 0.07 0.05 0.05 0.04 0.02 0.02 0.03 0.02 0.02 0.01 0.01 0.01 0.00 0.00 0.00 0.00 0.00 0.00 0.00 0.00 0.00
0.01 0.01 0.01 0.00 0.01 0.02 0.03 0.02 0.01 0.00 0.00 0.00 0.00 0.00 0.01 0.02 0.03 0.03 0.03 0.04 0.04 0.04 0.04 0.04 0.04 0.03 0.02 0.02 0.01 0.02 0.02 0.01 0.01 0.00 0.00 0.00 0.00 0.00 0.00 0.00 0.00 0.00 0.00 0.00
0.01 0.01 0.00 0.00 0.01 0.01 0.01 0.01 0.01 0.01 0.00 0.00 0.00 0.00 0.00 0.02 0.04 0.03 0.02 0.03 0.03 0.02 0.02 0.02 0.02 0.02 0.02 0.03 0.02 0.02 0.03 0.02 0.01 0.00 0.00 0.00 0.00 0.00 0.00 0.00 0.00 0.00 0.00 0.00
0.01 0.00 0.00 0.00 0.00 0.00 0.00 0.00 0.01 0.00 0.00 0.00 0.00 0.00 0.00 0.01 0.02 0.03 0.02 0.02 0.03 0.03 0.03 0.02 0.01 0.01 0.02 0.02 0.02 0.02 0.02 0.01 0.00 0.00 0.00 0.00 0.00 0.00 0.00 0.00 0.00 0.00 0.00 0.00
0.00 0.00 0.00 0.00 0.00 0.00 0.00 0.00 0.00 0.00 0.00 0.00 0.00 0.00 0.00 0.00 0.01 0.03 0.04 0.04 0.03 0.02 0.03 0.02 0.02 0.01 0.01 0.01 0.01 0.02 0.02 0.02 0.01 0.00 0.00 0.00 0.00 0.00 0.00 0.00 0.00 0.00 0.00 0.00
0.00 0.00 0.00 0.00 0.00 0.00 0.00 0.00 0.00 0.00 0.00 0.00 0.00 0.00 0.00 0.00 0.01 0.01 0.03 0.05 0.04 0.02 0.02 0.02 0.02 0.02 0.01 0.01 0.01 0.02 0.02 0.02 0.01 0.00 0.00 0.00 0.00 0.00 0.00 0.00 0.00 0.00 0.00 0.00
0.00 0.00 0.00 0.00 0.00 0.00 0.00 0.00 0.00 0.01 0.01 0.02 0.01 0.01 0.01 0.01 0.01 0.01 0.02 0.03 0.02 0.03 0.03 0.02 0.02 0.02 0.02 0.02 0.01 0.01 0.01 0.01 0.00 0.00 0.00 0.00 0.00 0.00 0.00 0.00 0.00 0.00 0.00 0.00
0.00 0.00 0.00 0.00 0.00 0.00 0.00 0.00 0.00 0.00 0.01 0.01 0.01 0.01 0.02 0.01 0.01 0.01 0.02 0.02 0.02 0.03 0.04 0.02 0.01 0.01 0.01 0.01 0.01 0.01 0.00 0.00 0.00 0.00 0.00 0.00 0.00 0.00 0.00 0.00 0.00 0.00 0.00 0.00
MSLP
1013.08 1013.78 1014.28 1014.57 1014.67 1014.64 1014.52 1014.39 1014.29 1014.23 1014.21 1014.19 1014.13 1014.01 1013.80 1013.50 1013.15 1012.77 1012.43 1012.16 1012.00 1011.93 1011.96 1012.05 1012.16 1012.24 1012.28 1012.28 1012.24 1012.22 1012.24 1012.37 1012.62 1013.01 1013.53 1014.14 1014.81 1015.47 1016.07 1016.60 1017.01 1017.32 1017.54 1017.69
1013.40 1013.94 1014.28 1014.41 1014.40 1014.31 1014.20 1014.13 1014.14 1014.20 1014.30 1014.39 1014.42 1014.36 1014.18 1013.92 1013.60 1013.28 1013.01 1012.83 1012.74 1012.75 1012.82 1012.89 1012.92 1012.89 1012.76 1012.57 1012.35 1012.15 1012.05 1012.10 1012.33 1012.74 1013.31 1014.01 1014.76 1015.51 1016.20 1016.79 1017.27 1017.63 1017.90 1018.10
1013.45 1013.82 1013.98 1013.98 1013.87 1013.75 1013.68 1013.70 1013.82 1014.02 1014.25 1014.45 1014.55 1014.54 1014.40 1014.16 1013.88 1013.61 1013.42 1013.32 1013.32 1013.40 1013.51 1013.59 1013.58 1013.44 1013.19 1012.84 1012.47 1012.14 1011.93 1011.92 1012.13 1012.57 1013.20 1013.96 1014.79 1015.62 1016.37 1017.03 1017.56 1017.98 1018.30 1018.55
1013.24 1013.44 1013.45 1013.33 1013.18 1013.06 1013.06 1013.20 1013.46 1013.81 1014.16 1014.44 1014.61 1014.63 1014.51 1014.29 1014.03 1013.81 1013.67 1013.66 1013.75 1013.91 1014.08 1014.18 1014.15 1013.96 1013.63 1013.18 1012.70 1012.28 1012.01 1011.96 1012.16 1012.62 1013.28 1014.10 1014.98 1015.85 1016.65 1017.35 1017.92 1018.37 1018.74 1019.03
1012.84 1012.88 1012.77 1012.60 1012.44 1012.39 1012.49 1012.77 1013.18 1013.66 1014.12 1014.48 1014.69 1014.72 1014.59 1014.37 1014.12 1013.93 1013.85 1013.90 1014.08 1014.33 1014.57 1014.72 1014.71 1014.52 1014.15 1013.66 1013.14 1012.67 1012.37 1012.31 1012.51 1012.97 1013.65 1014.48 1015.38 1016.26 1017.07 1017.77 1018.36 1018.83 1019.22 1019.55
1012.36 1012.28 1012.10 1011.91 1011.80 1011.85 1012.09 1012.52 1013.07 1013.67 1014.21 1014.61 1014.83 1014.84 1014.69 1014.45 1014.19 1014.02 1013.99 1014.12 1014.38 1014.72 1015.04 1015.26 1015.32 1015.16 1014.82 1014.34 1013.82 1013.36 1013.06 1012.99 1013.19 1013.65 1014.33 1015.14 1016.02 1016.87 1017.65 1018.32 1018.89 1019.35 1019.75 1020.10
1011.92 1011.76 1011.56 1011.40 1011.38 1011.55 1011.93 1012.49 1013.16 1013.84 1014.43 1014.84 1015.03 1015.01 1014.82 1014.54 1014.28 1014.12 1014.13 1014.33 1014.67 1015.11 1015.53 1015.85 1015.99 1015.92 1015.64 1015.22 1014.75 1014.32 1014.05 1014.00 1014.20 1014.64 1015.28 1016.05 1016.87 1017.66 1018.38 1018.99 1019.51 1019.94 1020.32 1020.67
1011.61 1011.42 1011.23 1011.14 1011.22 1011.50 1012.00 1012.67 1013.41 1014.12 1014.71 1015.09 1015.24 1015.16 1014.92 1014.61 1014.35 1014.21 1014.28 1014.54 1014.98 1015.52 1016.05 1016.47 1016.72 1016.75 1016.57 1016.24 1015.85 1015.49 1015.26 1015.23 1015.43 1015.85 1016.44 1017.14 1017.88 1018.59 1019.22 1019.76 1020.21 1020.59 1020.93 1021.26
1011.48 1011.29 1011.16 1011.14 1011.31 1011.69 1012.27 1012.98 1013.73 1014.42 1014.95 1015.27 1015.35 1015.21 1014.93 1014.62 1014.37 1014.28 1014.41 1014.76 1015.29 1015.93 1016.56 1017.10 1017.46 1017.60 1017.54 1017.32 1017.03 1016.75 1016.58 1016.58 1016.78 1017.16 1017.70 1018.33 1018.98 1019.59 1020.13 1020.59 1020.97 1021.29 1021.58 1021.87
1011.53 1011.39 1011.32 1011.38 1011.61 1012.04 1012.62 1013.31 1014.00 1014.61 1015.05 1015.27 1015.27 1015.09 1014.80 1014.51 1014.31 1014.30 1014.52 1014.96 1015.59 1016.32 1017.05 1017.69 1018.15 1018.41 1018.46 1018.35 1018.16 1017.98 1017.87 1017.91 1018.11 1018.48 1018.96 1019.51 1020.08 1020.61 1021.07 1021.45 1021.76 1022.02 1022.26 1022.51
1011.73 1011.65 1011.65 1011.76 1012.03 1012.44 1012.97 1013.56 1014.13 1014.60 1014.91 1015.03 1014.97 1014.76 1014.50 1014.27 1014.17 1014.26 1014.59 1015.14 1015.86 1016.68 1017.49 1018.20 1018.75 1019.10 1019.25 1019.25 1019.17 1019.07 1019.04 1019.12 1019.34 1019.69 1020.13 1020.62 1021.12 1021.57 1021.97 1022.29 1022.55 1022.77 1022.97 1023.18
1011.99 1012.01 1012.07 1012.21 1012.46 1012.80 1013.22 1013.66 1014.06 1014.36 1014.53 1014.55 1014.44 1014.25 1014.06 1013.94 1013.97 1014.20 1014.66 1015.32 1016.13 1017.01 1017.87 1018.64 1019.24 1019.66 1019.89 1019.99 1020.00 1019.99 1020.03 1020.16 1020.40 1020.74 1021.15 1021.60 1022.04 1022.45 1022.79 1023.07 1023.30 1023.50 1023.68 1023.86
1012.27 1012.38 1012.50 1012.65 1012.85 1013.09 1013.34 1013.59 1013.79 1013.92 1013.95 1013.89 1013.77 1013.64 1013.55 1013.58 1013.77 1014.16 1014.76 1015.52 1016.41 1017.33 1018.22 1019.00 1019.63 1020.09 1020.38 1020.55 1020.64 1020.72 1020.83 1021.01 1021.28 1021.62 1022.01 1022.43 1022.83 1023.20 1023.51 1023.78 1023.99 1024.18 1024.35 1024.52
1012.50 1012.71 1012.88 1013.03 1013.16 1013.26 1013.35 1013.39 1013.40 1013.36 1013.27 1013.17 1013.07 1013.02 1013.07 1013.27 1013.65 1014.21 1014.93 1015.79 1016.73 1017.67 1018.56 1019.33 1019.96 1020.43 1020.76 1020.98 1021.15 1021.29 1021.47 1021.70 1021.99 1022.34 1022.72 1023.11 1023.48 1023.82 1024.11 1024.36 1024.58 1024.77 1024.95 1025.12
1012.69 1012.99 1013.20 1013.33 1013.38 1013.35 1013.27 1013.13 1012.96 1012.78 1012.61 1012.49 1012.44 1012.51 1012.72 1013.11 1013.66 1014.37 1015.22 1016.15 1017.11 1018.05 1018.91 1019.65 1020.25 1020.72 1021.07 1021.33 1021.55 1021.76 1021.99 1022.26 1022.58 1022.92 1023.29 1023.65 1023.99 1024.30 1024.57 1024.81 1025.03 1025.24 1025.43 1025.62
1012.82 1013.20 1013.44 1013.55 1013.52 1013.38 1013.15 1012.86 1012.56 1012.28 1012.07 1011.96 1011.99 1012.19 1012.56 1013.12 1013.83 1014.68 1015.62 1016.60 1017.57 1018.48 1019.29 1019.98 1020.55 1021.00 1021.35 1021.65 1021.91 1022.17 1022.45 1022.75 1023.08 1023.42 1023.76 1024.08 1024.38 1024.66 1024.90 1025.13 1025.35 1025.56 1025.78 1025.99
1012.92 1013.34 1013.60 1013.68 1013.59 1013.36 1013.03 1012.64 1012.25 1011.92 1011.70 1011.64 1011.77 1012.09 1012.61 1013.31 1014.16 1015.11 1016.11 1017.11 1018.07 1018.93 1019.69 1020.33 1020.85 1021.28 1021.64 1021.96 1022.25 1022.55 1022.86 1023.19 1023.51 1023.84 1024.14 1024.43 1024.68 1024.91 1025.12 1025.33 1025.54 1025.76 1025.99 1026.22
1012.98 1013.41 1013.67 1013.73 1013.60 1013.32 1012.92 1012.48 1012.07 1011.74 1011.55 1011.55 1011.77 1012.21 1012.85 1013.67 1014.61 1015.63 1016.66 1017.66 1018.58 1019.40 1020.10 1020.69 1021.17 1021.58 1021.94 1022.27 1022.60 1022.93 1023.26 1023.59 1023.91 1024.21 1024.47 1024.71 1024.91 1025.09 1025.26 1025.44 1025.63 1025.85 1026.08 1026.33
1012.98 1013.40 1013.63 1013.67 1013.53 1013.23 1012.83 1012.40 1012.00 1011.71 1011.59 1011.67 1011.98 1012.51 1013.25 1014.14 1015.15 1016.19 1017.23 1018.20 1019.08 1019.85 1020.50 1021.04 1021.50 1021.89 1022.25 1022.60 1022.94 1023.28 1023.63 1023.96 1024.26 1024.53 1024.76 1024.95 1025.10 1025.24 1025.37 1025.52 1025.69 1025.89 1026.12 1026.37
1012.90 1013.27 1013.48 1013.51 1013.37 1013.10 1012.73 1012.35 1012.02 1011.81 1011.78 1011.95 1012.34 1012.95 1013.75 1014.69 1015.71 1016.76 1017.77 1018.71 1019.55 1020.28 1020.89 1021.39 1021.83 1022.21 1022.57 1022.92 1023.27 1023.62 1023.96 1024.28 1024.57 1024.81 1025.01 1025.17 1025.29 1025.39 1025.49 1025.62 1025.77 1025.96 1026.17 1026.42
1012.71 1013.02 1013.20 1013.23 1013.12 1012.91 1012.63 1012.35 1012.12 1012.02 1012.08 1012.35 1012.82 1013.48 1014.32 1015.27 1016.29 1017.32 1018.30 1019.20 1020.00 1020.68 1021.26 1021.74 1022.15 1022.53 1022.88 1023.23 1023.58 1023.92 1024.26 1024.56 1024.83 1025.06 1025.24 1025.38 1025.48 1025.57 1025.66 1025.77 1025.91 1026.08 1026.29 1026.51
1012.39 1012.64 1012.80 1012.85 1012.81 1012.68 1012.52 1012.37 1012.28 1012.31 1012.49 1012.85 1013.38 1014.09 1014.94 1015.89 1016.88 1017.87 1018.81 1019.67 1020.43 1021.08 1021.62 1022.09 1022.49 1022.85 1023.19 1023.53 1023.86 1024.19 1024.50 1024.80 1025.05 1025.27 1025.45 1025.59 1025.70 1025.80 1025.89 1026.01 1026.14 1026.30 1026.48 1026.68
1011.94 1012.15 1012.31 1012.41 1012.45 1012.45 1012.44 1012.44 1012.51 1012.68 1012.98 1013.43 1014.02 1014.76 1015.61 1016.54 1017.49 1018.43 1019.33 1020.14 1020.86 1021.47 1022.00 1022.44 1022.82 1023.17 1023.49 1023.80 1024.11 1024.41 1024.70 1024.98 1025.23 1025.45 1025.64 1025.80 1025.93 1026.06 1026.18 1026.31 1026.44 1026.60 1026.76 1026.92
1011.41 1011.60 1011.79 1011.96 1012.12 1012.26 1012.41 1012.58 1012.81 1013.13 1013.55 1014.08 1014.73 1015.48 1016.32 1017.21 1018.12 1019.01 1019.85 1020.61 1021.29 1021.88 1022.37 1022.79 1023.16 1023.48 1023.77 1024.05 1024.33 1024.60 1024.87 1025.12 1025.37 1025.60 1025.80 1025.99 1026.17 1026.33 1026.48 1026.63 1026.78 1026.92 1027.06 1027.19
1010.84 1011.05 1011.30 1011.57 1011.85 1012.14 1012.46 1012.80 1013.20 1013.65 1014.18 1014.78 1015.47 1016.23 1017.05 1017.89 1018.75 1019.58 1020.36 1021.08 1021.72 1022.27 1022.74 1023.13 1023.47 1023.76 1024.03 1024.27 1024.51 1024.75 1024.99 1025.23 1025.47 1025.70 1025.93 1026.15 1026.36 1026.56 1026.75 1026.92 1027.08 1027.22 1027.33 1027.42
1010.30 1010.57 1010.89 1011.27 1011.68 1012.13 1012.61 1013.11 1013.65 1014.22 1014.84 1015.51 1016.22 1016.97 1017.76 1018.55 1019.35 1020.11 1020.84 1021.51 1022.10 1022.62 1023.06 1023.43 1023.74 1024.00 1024.23 1024.44 1024.65 1024.85 1025.06 1025.29 1025.52 1025.77 1026.01 1026.26 1026.50 1026.72 1026.94 1027.12 1027.28 1027.41 1027.50 1027.56
Thickness
5677 5664 5656 5658 5659 5660 5659 5655 5653 5662 5675 5671 5668 5669 5675 5681 5685 5686 5688 5692 5695 5698 5703 5708 5712 5715 5716 5716 5715 5713 5711 5708 5707 5704 5702 5700 5695 5694 5693 5692 5692 5692 5691 5691
5661 5657 5666 5668 5664 5658 5653 5649 5650 5661 5672 5669 5663 5663 5669 5673 5675 5678 5680 5682 5685 5688 5692 5697 5702 5705 5706 5707 5708 5708 5704 5703 5702 5699 5699 5696 5690 5687 5685 5684 5684 5684 5684 5683
5658 5664 5674 5668 5662 5657 5653 5648 5653 5655 5662 5663 5659 5653 5659 5665 5668 5671 5673 5675 5677 5681 5683 5686 5691 5694 5696 5696 5698 5699 5698 5697 5696 5693 5690 5687 5683 5680 5677 5676 5674 5674 5675 5675
5659 5666 5668 5664 5661 5659 5649 5663 5660 5657 5649 5642 5651 5635 5649 5656 5658 5661 5663 5665 5667 5671 5674 5677 5681 5684 5686 5686 5687 5689 5690 5690 5688 5686 5684 5680 5678 5673 5669 5666 5664 5663 5664 5664
5660 5667 5665 5661 5665 5665 5660 5667 5661 5656 5647 5639 5641 5634 5638 5650 5651 5654 5656 5657 5659 5661 5664 5666 5669 5672 5674 5676 5677 5678 5680 5681 5682 5680 5678 5674 5669 5663 5659 5656 5655 5653 5653 5653
5664 5672 5670 5668 5672 5670 5666 5658 5650 5638 5632 5626 5636 5631 5632 5643 5649 5651 5652 5652 5652 5653 5655 5656 5658 5661 5663 5666 5668 5668 5670 5671 5671 5671 5670 5666 5661 5655 5650 5647 5645 5643 5642 5641
5656 5663 5670 5671 5662 5663 5656 5638 5620 5619 5611 5617 5633 5630 5630 5645 5650 5650 5647 5645 5645 5644 5645 5646 5648 5650 5651 5653 5655 5657 5659 5659 5658 5658 5656 5654 5650 5646 5641 5637 5636 5634 5632 5630
5640 5641 5661 5666 5660 5651 5649 5638 5617 5610 5608 5614 5626 5625 5634 5643 5646 5645 5642 5639 5637 5635 5635 5635 5636 5638 5639 5641 5643 5645 5646 5644 5644 5644 5642 5639 5636 5633 5629 5627 5626 5624 5622 5619
5637 5639 5661 5665 5665 5657 5644 5635 5635 5618 5615 5610 5616 5626 5633 5638 5637 5636 5633 5630 5627 5625 5625 5625 5625 5626 5628 5629 5630 5632 5633 5632 5631 5630 5628 5626 5624 5622 5618 5615 5614 5613 5611 5609
5648 5640 5652 5659 5661 5657 5650 5638 5621 5614 5607 5605 5615 5620 5624 5632 5631 5629 5626 5623 5619 5616 5614 5614 5614 5614 5616 5617 5618 5619 5620 5619 5618 5616 5615 5613 5612 5609 5606 5604 5601 5600 5598 5597
5651 5637 5641 5647 5645 5643 5642 5635 5624 5613 5612 5606 5605 5615 5634 5634 5632 5626 5621 5617 5612 5608 5605 5604 5603 5603 5604 5605 5606 5607 5606 5606 5605 5603 5601 5600 5598 5595 5593 5591 5589 5587 5585 5584
5646 5631 5626 5636 5646 5649 5644 5638 5625 5617 5613 5610 5606 5612 5631 5632 5628 5622 5615 5610 5605 5601 5597 5594 5593 5593 5593 5593 5593 5593 5592 5591 5590 5589 5588 5586 5583 5581 5579 5577 5575 5574 5571 5569
5644 5629 5619 5623 5630 5639 5639 5637 5630 5621 5613 5607 5605 5614 5625 5624 5620 5615 5608 5603 5597 5592 5588 5585 5583 5582 5582 5581 5581 5581 5580 5579 5578 5576 5575 5572 5570 5567 5565 5564 5562 5561 5559 5556
5647 5628 5620 5618 5622 5630 5631 5634 5631 5622 5612 5612 5615 5618 5617 5616 5611 5605 5600 5595 5590 5584 5580 5576 5573 5571 5571 5570 5569 5569 5567 5566 5565 5564 5562 5559 5556 5555 5553 5552 5550 5548 5546 5543
5645 5630 5629 5628 5633 5632 5632 5632 5631 5626 5623 5617 5620 5618 5616 5612 5606 5599 5593 5587 5582 5577 5572 5568 5565 5562 5560 5559 5558 5557 5555 5554 5552 5551 5549 5546 5544 5542 5541 5539 5537 5535 5533 5530
5637 5630 5628 5627 5633 5632 5629 5631 5630 5627 5624 5620 5618 5613 5611 5606 5599 5592 5586 5581 5575 5570 5565 5560 5557 5554 5552 5550 5548 5545 5543 5541 5540 5538 5536 5534 5532 5531 5529 5527 5524 5522 5520 5518
5630 5627 5620 5617 5626 5628 5620 5626 5626 5622 5620 5617 5613 5610 5604 5598 5592 5586 5580 5575 5569 5563 5557 5552 5549 5545 5542 5539 5537 5534 5531 5530 5528 5526 5524 5523 5521 5519 5517 5516 5512 5510 5508 5506
5630 5621 5611 5612 5619 5612 5621 5630 5628 5620 5617 5615 5612 5606 5599 5592 5584 5578 5574 5569 5562 5556 5550 5545 5540 5536 5532 5529 5527 5524 5522 5520 5518 5516 5514 5512 5511 5509 5507 5505 5502 5500 5498 5497
5635 5624 5612 5606 5608 5614 5624 5627 5624 5617 5610 5610 5605 5597 5589 5582 5576 5568 5564 5560 5554 5548 5542 5537 5532 5528 5524 5521 5518 5516 5513 5511 5509 5507 5505 5503 5502 5499 5497 5496 5494 5492 5490 5488
5631 5626 5615 5608 5609 5608 5621 5629 5629 5619 5606 5605 5601 5593 5585 5580 5574 5564 5556 5551 5545 5540 5534 5529 5525 5521 5516 5513 5511 5508 5504 5502 5501 5499 5497 5495 5494 5492 5489 5487 5486 5484 5482 5480
5627 5621 5616 5611 5610 5615 5627 5629 5627 5609 5606 5603 5597 5590 5582 5575 5569 5559 5550 5543 5538 5532 5527 5522 5518 5514 5510 5507 5504 5500 5497 5495 5494 5492 5490 5488 5486 5484 5482 5479 5478 5476 5475 5473
5626 5619 5615 5609 5609 5612 5626 5626 5618 5611 5605 5599 5591 5583 5575 5567 5559 5551 5543 5536 5531 5525 5519 5515 5511 5506 5502 5500 5497 5494 5490 5489 5487 5485 5483 5481 5479 5478 5475 5472 5470 5469 5468 5465
5628 5627 5621 5617 5616 5619 5619 5619 5613 5608 5601 5594 5586 5578 5571 5562 5554 5546 5538 5531 5525 5519 5513 5509 5505 5500 5496 5493 5491 5488 5485 5483 5481 5479 5476 5474 5473 5470 5468 5466 5464 5461 5460 5458
5631 5628 5623 5620 5621 5619 5615 5612 5609 5605 5599 5592 5584 5575 5568 5559 5550 5541 5533 5525 5519 5514 5509 5504 5500 5495 5491 5488 5486 5483 5480 5478 5475 5472 5470 5468 5466 5463 5461 5459 5457 5455 5453 5452
5636 5629 5623 5622 5621 5618 5614 5609 5604 5599 5594 5587 5579 5572 5565 5557 5547 5538 5530 5522 5516 5510 5505 5501 5497 5492 5487 5484 5481 5479 5476 5474 5470 5467 5465 5463 5460 5458 5455 5453 5451 5450 5449 5448
5638 5635 5630 5629 5627 5621 5613 5606 5602 5597 5590 5583 5576 5566 5559 5553 5544 5535 5527 5519 5513 5507 5502 5498 5493 5489 5485 5481 5478 5476 5473 5470 5467 5464 5461 5459 5456 5454 5452 5449 5448 5447 5447 5446